Location: The Jewett Observatory
(46.7288°N, 117.1525°W)
Time: 00:51:25
(UTC-07:00)

Meteor 1-28 Rocket - Visible Passes

Search period start: 24 April 2014 00:00
Search period end: 04 May 2014 00:00
Orbit: 516 x 537 km, 97.3° (Epoch: 23 April)

Date Brightness Start Highest point End Pass type
(mag) Time Alt. Az. Time Alt. Az. Time Alt. Az.
24 Apr 3.1 21:31:38 10° NNE 21:35:30 83° ESE 21:38:31 16° S visible
24 Apr 6.5 23:08:42 10° NW 23:09:11 10° WNW 23:09:40 10° WNW visible
25 Apr 3.2 21:20:09 10° NNE 21:23:59 61° E 21:27:01 15° S visible
25 Apr 6.2 22:55:56 10° NNW 22:57:48 13° WNW 22:59:41 10° W visible
26 Apr 3.6 21:08:43 10° NNE 21:12:26 44° E 21:15:31 14° SSE visible
26 Apr 6.0 22:43:52 10° NNW 22:46:24 17° WNW 22:48:56 10° WSW visible
27 Apr 4.0 20:57:20 10° NNE 21:00:51 33° E 21:04:00 12° SSE visible
27 Apr 5.7 22:31:59 10° NNW 22:34:59 22° WNW 22:37:58 10° WSW visible
28 Apr 4.4 20:46:01 10° NE 20:49:15 25° E 20:52:29 10° SSE visible
28 Apr 5.2 22:20:12 10° N 22:23:31 28° WNW 22:26:51 10° SW visible
29 Apr 4.7 20:34:49 10° NE 20:37:37 19° E 20:40:26 10° SE visible
29 Apr 4.7 22:08:28 10° N 22:12:03 37° WNW 22:15:37 10° SW visible
30 Apr 4.2 21:56:48 10° N 22:00:33 49° WNW 22:04:17 10° SSW visible
01 May 3.6 21:45:10 10° N 21:49:01 67° WNW 21:52:51 10° SSW visible
02 May 3.2 21:33:34 10° NNE 21:37:28 89° ESE 21:41:20 10° SSW visible
03 May 3.2 21:22:01 10° NNE 21:25:53 66° E 21:29:44 10° S visible
03 May 6.3 22:57:59 10° NW 22:59:40 13° WNW 23:01:21 10° W visible
